Date String (YYYY-MM-DD hh:mm:ss) UTC,Instrument flags,absolute air pressure of the measurement (hPa),sample flow rate (lpm),inlet stack bypass flow (lpm),air temperature of the measurement (°C),ambient temperature measured by the external sensor (°C),aerosol sample conditioner tube jacket temperature (°C),OPC LED temperature (°C),internal box temperature (°C),relative humidity of the measurement (%),span deviation,mass concentration of particles derived from Lorenz-Mie calculation of OPC scattering (μg/m³),mass concentration of particles derived from Lorenz-Mie calculation of OPC scattering (μg/m³),mass concentration of particles derived from Lorenz-Mie calculation of OPC scattering (μg/m³)
DateTimeUTC,F1_M11,P_M11,Q1_M11,Q2_M11,T1_M11,T2_M11,T3_M11,T4_M11,T5_M11,U1_M11,ZSPAN_M11,X0_M11,X2_M11,X1_M11
2023-09-19 19:00:00,SystemResetWarning,0828.7,5.01,000.00,027.7,024.9,000.0,036.1,029.1,17.5,0000.0,0009.14,0002.19,0001.59
2023-09-19 19:01:00,SystemResetWarning,0828.7,5.00,000.00,027.7,025.3,000.0,036.1,029.1,17.1,0000.0,0008.72,0002.15,0001.58
2023-09-19 19:02:00,SystemResetWarning,0828.7,4.99,000.00,027.7,025.6,000.0,036.1,029.2,17.5,0000.0,0008.31,0002.17,0001.60
2023-09-19 19:03:00,SystemResetWarning,0828.7,5.00,000.00,027.7,025.9,000.0,036.1,029.3,17.3,0000.0,0008.16,0002.18,0001.62
2023-09-19 19:04:00,SystemResetWarning,0828.7,5.00,000.00,027.8,026.2,000.0,036.1,029.3,17.4,0000.0,0007.38,0002.20,0001.64
2023-09-19 19:05:00,SystemResetWarning,0828.7,5.00,000.00,027.8,026.4,000.0,036.1,029.4,17.7,0000.0,0007.42,0002.19,0001.64
2023-09-19 19:06:00,SystemResetWarning,0828.6,5.00,000.00,027.8,026.5,000.0,036.2,029.5,17.7,0000.0,0007.00,0002.14,0001.64
2023-09-19 19:07:00,SystemResetWarning,0828.6,5.00,000.00,027.9,026.7,000.0,036.2,029.6,18.1,0000.0,0006.75,0002.10,0001.65
2023-09-19 19:08:00,SystemResetWarning,0828.6,4.99,000.00,027.9,026.8,000.0,036.2,029.6,18.1,0000.0,0006.75,0002.10,0001.68
2023-09-19 19:09:00,SystemResetWarning,0828.6,4.99,000.00,028.0,027.0,000.0,036.2,029.7,18.3,0000.0,0005.88,0002.12,0001.70
2023-09-19 19:10:00,SystemResetWarning,0828.6,4.99,000.00,028.0,027.1,000.0,036.3,029.8,17.8,0000.0,0004.75,0002.09,0001.73
2023-09-19 19:11:00,SystemResetWarning,0828.6,5.00,000.00,028.0,026.6,000.0,036.3,029.7,17.4,0000.0,0003.30,0002.07,0001.77
2023-09-19 19:12:00,SystemResetWarning,0828.6,5.01,000.00,027.9,025.1,000.0,036.2,029.3,17.5,0000.0,0004.39,0002.14,0001.80
2023-09-19 19:13:00,SystemResetWarning,0828.6,5.02,000.00,027.9,024.9,000.0,036.2,029.3,17.3,0000.0,0004.78,0002.21,0001.82
2023-09-19 19:14:00,SystemResetWarning,0828.6,4.99,000.00,027.8,025.1,000.0,036.2,029.3,17.4,0000.0,0004.68,0002.21,0001.84
2023-09-19 19:15:00,SystemResetWarning,0828.6,5.00,000.00,027.8,025.3,000.0,036.2,029.3,17.7,0000.0,0004.77,0002.26,0001.86
2023-09-19 19:16:00,SystemResetWarning,0828.5,5.00,000.00,027.8,025.6,000.0,036.2,029.3,17.5,0000.0,0005.33,0002.31,0001.89
2023-09-19 19:17:00,SystemResetWarning,0828.6,4.99,000.00,027.8,025.9,000.0,036.2,029.4,17.8,0000.0,0005.26,0002.36,0001.94
2023-09-19 19:18:00,SystemResetWarning,0828.6,5.01,000.00,027.9,026.2,000.0,036.2,029.5,18.1,0000.0,0005.28,0002.38,0001.96
2023-09-19 19:19:00,SystemResetWarning,0828.5,5.01,000.00,027.9,026.4,000.0,036.2,029.5,18.2,0000.0,0005.18,0002.37,0001.97
2023-09-19 19:20:00,SystemResetWarning,0828.5,5.00,000.00,027.9,026.6,000.0,036.2,029.6,18.8,0000.0,0005.12,0002.34,0001.98
2023-09-19 19:21:00,SystemResetWarning,0828.4,4.99,000.00,028.0,026.8,000.0,036.3,029.7,18.1,0000.0,0005.25,0002.36,0001.99
2023-09-19 19:22:00,SystemResetWarning,0828.4,4.99,000.00,028.0,026.9,000.0,036.3,029.8,18.0,0000.0,0005.30,0002.37,0001.98
2023-09-19 19:23:00,SystemResetWarning,0828.4,5.00,000.00,028.1,027.0,000.0,036.3,029.8,17.4,0000.0,0005.24,0002.33,0001.97
2023-09-19 19:24:00,SystemResetWarning,0828.4,5.00,000.00,028.1,026.3,000.0,036.3,029.7,17.5,0000.0,0005.07,0002.27,0001.96
2023-09-19 19:25:00,SystemResetWarning,0828.4,5.00,000.00,028.0,025.0,000.0,036.3,029.4,17.3,0000.0,0005.08,0002.25,0001.94
2023-09-19 19:26:00,SystemResetWarning,0828.4,5.00,000.00,027.9,025.0,000.0,036.2,029.4,18.0,0000.0,0005.02,0002.23,0001.93
2023-09-19 19:27:00,SystemResetWarning,0828.3,5.01,000.00,027.9,025.2,000.0,036.2,029.3,16.8,0000.0,0004.43,0002.18,0001.91
2023-09-19 19:28:00,SystemResetWarning,0828.3,5.01,000.00,027.9,025.5,000.0,036.3,029.3,17.0,0000.0,0004.23,0002.14,0001.87
2023-09-19 19:29:00,SystemResetWarning,0828.4,4.99,000.00,027.9,025.8,000.0,036.3,029.4,16.9,0000.0,0004.21,0002.13,0001.86
2023-09-19 19:30:00,SystemResetWarning,0828.3,5.00,000.00,027.9,026.1,000.0,036.3,029.5,17.9,0000.0,0004.43,0002.15,0001.85
2023-09-19 19:31:00,SystemResetWarning,0828.4,5.01,000.00,027.9,026.3,000.0,036.3,029.5,16.8,0000.0,0004.59,0002.13,0001.83
2023-09-19 19:32:00,SystemResetWarning,0828.3,4.99,000.00,028.0,026.5,000.0,036.3,029.6,17.5,0000.0,0004.45,0002.10,0001.80
2023-09-19 19:33:00,SystemResetWarning,0828.4,4.99,000.00,028.0,026.7,000.0,036.3,029.7,16.7,0000.0,0004.44,0002.10,0001.80
2023-09-19 19:34:00,SystemResetWarning,0828.4,5.00,000.00,028.0,026.9,000.0,036.3,029.7,16.3,0000.0,0003.64,0002.08,0001.78
2023-09-19 19:35:00,SystemResetWarning,0828.4,4.99,000.00,028.1,026.5,000.0,036.3,029.7,16.2,0000.0,0003.19,0002.07,0001.77
2023-09-19 19:36:00,SystemResetWarning,0828.4,5.00,000.00,028.0,024.8,000.0,036.3,029.2,15.9,0000.0,0003.15,0002.08,0001.77
2023-09-19 19:37:00,SystemResetWarning,0828.3,5.01,000.00,027.8,024.0,000.0,036.2,029.1,16.3,0000.0,0003.09,0002.09,0001.77
2023-09-19 19:38:00,SystemResetWarning,0828.3,5.01,000.00,027.8,024.2,000.0,036.2,029.1,16.5,0000.0,0003.14,0002.09,0001.76
2023-09-19 19:39:00,SystemResetWarning,0828.3,4.99,000.00,027.7,024.6,000.0,036.2,029.0,16.5,0000.0,0003.21,0002.11,0001.76
2023-09-19 19:40:00,SystemResetWarning,0828.3,4.99,000.00,027.7,024.9,000.0,036.2,029.1,16.4,0000.0,0003.15,0002.10,0001.76
2023-09-19 19:41:00,SystemResetWarning,0828.4,5.01,000.00,027.7,025.3,000.0,036.2,029.2,16.6,0000.0,0003.12,0002.11,0001.75
2023-09-19 19:42:00,SystemResetWarning,0828.4,5.00,000.00,027.7,025.7,000.0,036.2,029.2,17.3,0000.0,0003.08,0002.19,0001.76
2023-09-19 19:43:00,SystemResetWarning,0828.4,5.00,000.00,027.8,026.0,000.0,036.2,029.3,17.8,0000.0,0004.87,0002.20,0001.76
2023-09-19 19:44:00,SystemResetWarning,0828.4,5.00,000.00,027.8,026.2,000.0,036.2,029.4,17.7,0000.0,0006.15,0002.20,0001.74
2023-09-19 19:45:00,SystemResetWarning,0828.3,5.00,000.00,027.8,026.4,000.0,036.2,029.4,16.9,0000.0,0006.24,0002.22,0001.74
2023-09-19 19:46:00,SystemResetWarning,0828.4,5.00,000.00,027.9,026.6,000.0,036.2,029.5,16.5,0000.0,0006.39,0002.26,0001.73
2023-09-19 19:47:00,SystemResetWarning,0828.4,5.00,000.00,027.9,026.8,000.0,036.2,029.6,15.8,0000.0,0006.57,0002.28,0001.71
2023-09-19 19:48:00,SystemResetWarning,0828.4,5.00,000.00,028.0,026.9,000.0,036.2,029.7,15.8,0000.0,0006.70,0002.27,0001.69
2023-09-19 19:49:00,SystemResetWarning,0828.4,4.98,000.00,028.0,026.3,000.0,036.2,029.5,16.3,0000.0,0006.73,0002.31,0001.69
2023-09-19 19:50:00,SystemResetWarning,0828.3,5.00,000.00,027.9,024.5,000.0,036.2,029.0,16.9,0000.0,0006.73,0002.31,0001.68
2023-09-19 19:51:00,SystemResetWarning,0828.4,5.00,000.00,027.8,024.0,000.0,036.1,029.0,17.0,0000.0,0007.15,0002.32,0001.67
2023-09-19 19:52:00,SystemResetWarning,0828.3,5.01,000.00,027.7,024.2,000.0,036.1,029.0,19.1,0000.0,0007.31,0002.31,0001.67
2023-09-19 19:53:00,SystemResetWarning,0828.4,5.01,000.00,027.6,024.6,000.0,036.1,029.0,19.7,0000.0,0007.21,0002.24,0001.66
2023-09-19 19:54:00,SystemResetWarning,0828.3,4.99,000.00,027.6,025.0,000.0,036.1,029.0,20.0,0000.0,0005.88,0002.24,0001.66
2023-09-19 19:55:00,SystemResetWarning,0828.3,4.99,000.00,027.6,025.3,000.0,036.1,029.1,19.6,0000.0,0004.31,0002.20,0001.67
2023-09-19 19:56:00,SystemResetWarning,0828.3,5.00,000.00,027.7,025.7,000.0,036.1,029.2,19.1,0000.0,0004.02,0002.17,0001.66
2023-09-19 19:57:00,SystemResetWarning,0828.4,5.01,000.00,027.7,026.0,000.0,036.1,029.3,18.5,0000.0,0004.82,0002.16,0001.67
2023-09-19 19:58:00,SystemResetWarning,0828.3,5.00,000.00,027.7,026.2,000.0,036.1,029.4,18.2,0000.0,0004.74,0002.16,0001.69
2023-09-19 19:59:00,SystemResetWarning,0828.3,4.99,000.00,027.8,026.5,000.0,036.1,029.4,18.4,0000.0,0004.63,0002.16,0001.69
